Regional Weather Roundup
Issued by NWS

Home | Current Version | Previous Version | Graphics & Text | Print | Product List | Glossary On
Versions: 1 2 3 4 5 6 7 8 9 10 11 12 13 14 15 16 17 18 19 20 21 22 23 24 25 26 27 28 29 30 31 32 33 34 35 36 37 38 39 40 41 42 43 44 45 46 47 48 49 50
000
ASUS43 KMPX 190610
RWRMN
WEATHER ROUNDUP FOR MINNESOTA
NATIONAL WEATHER SERVICE TWIN CITIES/CHANHASSEN MN
1200 AM CST FRI DEC 19 2014


NOTE: "FAIR" INDICATES FEW OR NO CLOUDS BELOW 12,000 FEET WITH NO
SIGNIFICANT WEATHER AND/OR OBSTRUCTIONS TO VISIBILITY. N/A MEANS
CURRENT SKY AND/OR WEATHER CONDITIONS ARE NOT AVAILABLE.

MNZ060>063-068>070-190700-
   Twin Cities Metro

CITY           SKY/WX    TMP DP  RH WIND       PRES   REMARKS
TWIN CITIES    CLOUDY    20  15  81 SE8       30.28S WCI  10
6HR MIN TEMP:  20; 6HR MAX TEMP:  22;

ST PAUL        CLOUDY    21  16  81 S7        30.30S WCI  12
CRYSTAL        CLOUDY    22  15  75 S7        30.26F WCI  13
BLAINE         CLOUDY    23  19  86 S3        30.27S
LAKEVILLE      CLOUDY    19  16  86 SE5       30.27S WCI  13
EDEN PRAIRIE   CLOUDY    21  15  78 SE7       30.26S WCI  12
6HR MIN TEMP:  21; 6HR MAX TEMP:  22;

SOUTH ST PAUL  CLOUDY    22  17  78 S6        30.29S WCI  15
LAKE ELMO      CLOUDY    23  19  86 S7        30.28S WCI  15
$$
MNZ001>005-007-008-013>017-022>024-027-028-190700-
   Northwest Minnesota

CITY           SKY/WX    TMP DP  RH WIND       PRES   REMARKS
BEMIDJI        CLOUDY    18  15  88 S8        30.17S WCI   8
HALLOCK        CLOUDY    21  18  86 S14       30.14S FOG     WCI   8
ROSEAU         CLOUDY    19  14  79 S9        30.16S WCI   9
WARROAD        CLOUDY    18  14  86 S9        30.17S WCI   6
THIEF RVR FALL CLOUDY    21  16  79 S10       30.16S WCI  10
CROOKSTON      PTCLDY    21  19  93 S10       30.17F FOG     WCI  10
FOSSTON        CLOUDY    18  16  93 SE6       30.17S WCI   9
DETROIT LAKES  CLOUDY    21  18  86 S10       30.17S WCI  10
MOORHEAD       LGT SNOW  21  21 100 S14G20    30.18S WCI   8
PARK RAPIDS    CLOUDY    19  15  84 S9        30.18S WCI   8
MAHNOMEN       CLOUDY    20  15  83 S7        30.16S WCI  11
$$
MNZ006-009>011-018-025>026-190700-
   North Central Minnesota

CITY           SKY/WX    TMP DP  RH WIND       PRES   REMARKS
BAUDETTE       CLOUDY    19  14  81 S7        30.18S WCI  10
FLAG ISLAND    CLOUDY    18  16  93 S10       30.17S WCI   6
INTL FALLS     CLOUDY    21  17  84 CALM      30.20S
6HR MIN TEMP:  19; 6HR MAX TEMP:  21;

WASKISH        CLOUDY    19  16  86 CALM      30.19F
BIG FORK       CLOUDY    21  18  86 S7        30.20S WCI  13
LONGVILLE      CLOUDY    19  18  93 S8        30.21S WCI   9
GRAND RAPIDS   CLOUDY    19  16  86 S10       30.19F WCI   8
CRANE LAKE     CLOUDY    21  19  93 CALM      30.23S
ORR            CLOUDY    21  18  86 S5        30.18S WCI  15
COOK           CLOUDY    21  19  93 S6        30.20F WCI  14
WALKER         CLOUDY    18  15  89 S6        30.19S WCI   9
$$
MNZ012-019>021-037-190700-
   Northeast Minnesota

CITY           SKY/WX    TMP DP  RH WIND       PRES   REMARKS
DULUTH         CLOUDY    22  18  85 S6        30.21F WCI  14
6HR MIN TEMP:  22; 6HR MAX TEMP:  24; 6HR PCP: TRACE;

ELY            CLOUDY    23  19  86 S8        30.21S WCI  14
HIBBING        CLOUDY    23  17  78 S6        30.20S WCI  16
EVELETH        CLOUDY    23  19  86 SE6       30.21F WCI  16
DULUTH HARBOR  CLOUDY    25  21  86 CALM      30.28S
TWO HARBORS    CLOUDY    27  19  74 SE3       30.23S
SILVER BAY     CLOUDY    25  19  80 S5        30.23S WCI  19
GRAND MARAIS     N/A     20  14  77 N5        30.28F WCI  13
G MARAIS ARPRT CLOUDY     5   0  78 N5        30.21S WCI  -4
$$
MNZ029>031-032-039>041-046>048-054>057-064-190700-
   West Central Minnesota

CITY           SKY/WX    TMP DP  RH WIND       PRES   REMARKS
FERGUS FALLS   FLURRIES  19  16  86 S12       30.21F WCI   7
WHEATON        LGT SNOW  19  18  93 SE10      30.20F WCI   8
MORRIS         PTCLDY    21  19  93 SE8       30.19S WCI  12
ALEXANDRIA     CLOUDY    20  15  81 SE8       30.19F WCI  10
ELBOW LAKE     CLOUDY    20  17  90 SE9       30.18F WCI   9
WADENA         CLOUDY    18  16  93 NW9       30.18F WCI   6
GLENWOOD       PTCLDY    19  18  93 SE8       30.20S WCI   9
APPLETON       CLOUDY    23  19  86 SE5       30.20S WCI  17
BENSON         CLOUDY    21  18  86 S8        30.21S WCI  12
ORTONVILLE     CLOUDY    21  19  93 SE7       30.18F WCI  13
MADISON        PTCLDY    27  25  93 SE5       30.20S WCI  21
WILLMAR        CLOUDY    23  19  86 SE8       30.23S WCI  14
$$
MNZ033>034-036-042>043-049>051-058-059-190700-
   Central Minnesota

CITY           SKY/WX    TMP DP  RH WIND       PRES   REMARKS
ST CLOUD       CLOUDY    22  15  75 SE6       30.25S WCI  14
6HR MIN TEMP:  20; 6HR MAX TEMP:  22;

SAUK CENTRE    CLOUDY    19  16  86 SE7       30.21S WCI  10
PAYNESVILLE    CLOUDY    18  16  92 E5        30.23S WCI  11
AITKIN         CLOUDY    21  16  79 S5        30.21S WCI  15
PINE RIVER     CLOUDY    18  16  93 SE7       30.24S WCI   8
BRAINERD       CLOUDY    19  15  84 S3        30.23S
STAPLES        CLOUDY    18  14  86 SE7       30.20F WCI   8
LONG PRAIRIE   CLOUDY    19  16  86 SE7       30.21S WCI  10
LITTLE FALLS   CLOUDY    21  14  73 SE7       30.24S WCI  13
LITCHFIELD     CLOUDY    21  19  93 SE5       30.25R WCI  15
BUFFALO        CLOUDY    21  16  81 SE3       30.28R
MAPLE LAKE     CLOUDY    22  19  87 SE5       30.26S WCI  15
$$
MNZ037-044-045-052-053-190700-
   East Central Minnesota

CITY           SKY/WX    TMP DP  RH WIND       PRES   REMARKS
PRINCETON      CLOUDY    21  18  86 CALM      30.26S
MORA           CLOUDY    21  16  79 S7        30.27S WCI  13
CAMBRIDGE      CLOUDY    23  16  74 CALM      30.25F
RUSH CITY      CLOUDY    22  19  87 CALM      30.27S
MOOSE LAKE     CLOUDY    21  19  93 CALM      30.23S
HINCKLEY       CLOUDY    23  19  86 CALM      30.26R
CLOQUET        CLOUDY    19  18  93 S6        30.22S WCI  11
MCGREGOR       CLOUDY    21  19  93 S6        30.24R WCI  14
$$
MNZ071>073-080-081-089-090-097-098-190700-
   Southwest Minnesota

CITY           SKY/WX    TMP DP  RH WIND       PRES   REMARKS
MONTEVIDEO     CLOUDY    21  21 100 S7        30.22S WCI  13
GRANITE FALLS  CLOUDY    23  21  89 SE7       30.23S WCI  15
CANBY          CLOUDY    25  24  96 SE3       30.19F
MARSHALL       CLOUDY    25  21  86 SE5       30.20S WCI  19
REDWOOD FALLS  CLOUDY    24  20  84 SE9       30.23R WCI  14
OLIVIA         CLOUDY    23  21  93 SE8       30.23R WCI  14
PIPESTONE      CLOUDY    27  25  93 S3        30.16S FOG
WINDOM         CLOUDY    25  23  93 CALM      30.21R
WORTHINGTON    CLOUDY    25  23  93 S8        30.20S WCI  16
JACKSON        CLOUDY    27  23  86 S6        30.21S WCI  20
TRACY          CLOUDY    27  25  91 S3        30.20S
SLAYTON        CLOUDY    26  25  96 CALM      30.19R FOG
$$
MNZ065>067-074>077-082>085-091>093-190700-
   South Central Minnesota

CITY           SKY/WX    TMP DP  RH WIND       PRES   REMARKS
MANKATO        CLOUDY    23  16  74 SE7       30.25S WCI  15
NEW ULM        CLOUDY    23  21  93 SE5       30.25R WCI  17
ST JAMES       CLOUDY    25  21  86 SE6       30.25S WCI  18
FAIRMONT       CLOUDY    25  19  80 S8        30.23S WCI  16
GLENCOE        CLOUDY    22  19  89 SE5       30.25S WCI  16
FARIBAULT      CLOUDY    21  18  86 SE5       30.26S WCI  15
OWATONNA       CLOUDY    21  18  86 E3        30.25S
WASECA         CLOUDY    23  19  86 SE6       30.26S WCI  16
ALBERT LEA     CLOUDY    25  21  86 S5        30.24S WCI  19
$$
MNZ078>079-086>088-094>096-190700-
   Southeast Minnesota

CITY           SKY/WX    TMP DP  RH WIND       PRES   REMARKS
ROCHESTER      CLOUDY    20  16  84 CALM      30.26R
6HR MIN TEMP:  18; 6HR MAX TEMP:  21;

RED WING       CLOUDY    25  18  74 SE3       30.28S
STANTON        CLOUDY    22  17  79 CALM      30.27R
DODGE CENTER   CLOUDY    21  18  86 SE3       30.25S
WINONA         CLOUDY    27  19  74 CALM      30.30S
AUSTIN         CLOUDY    21  18  86 S3        30.25S
PRESTON        CLOUDY    21  17  83 CALM      30.26S
$$
ABBREVIATIONS USED IN REMARKS
   TC - TEMPERATURES IN CELSIUS
  WCI - WIND CHILL INDEX
   HX - HEAT INDEX
  VSB - VISIBILITY
$$



USA.gov is the U.S. government's official web portal to all federal, state and local government web resources and services.